RH
54 56 55 48 48 49 51 53 61 68 74 69 62 53 48 59 77 83 65 63 60 65 70 71 68 70 76 75 79 77 79 81 86 85 84 79 77 73 70 68 64 63 62
44 54 55 57 57 58 62 60 64 73 59 60 61 53 44 53 75 85 92 74 64 61 62 67 69 73 73 75 81 88 87 80 80 77 77 75 76 73 75 74 72 72 69
44 46 54 54 60 71 68 63 78 84 72 60 56 49 47 55 81 87 93 92 82 74 70 72 69 73 72 74 81 88 91 86 89 89 83 79 78 78 75 72 69 69 68
40 45 50 59 62 71 77 72 85 88 73 57 48 49 51 63 74 96 99 93 88 89 82 82 74 76 85 84 83 85 93 92 93 94 84 80 78 76 69 67 65 66 69
47 51 57 64 72 75 77 89 89 63 66 54 46 46 50 58 67 80 86 87 94 92 94 90 88 91 91 89 86 85 93 90 88 82 81 81 80 75 72 67 62 61 62
43 51 60 73 81 98 96 91 83 64 60 52 44 43 45 50 58 67 77 85 89 91 90 93 93 90 92 90 90 87 89 86 82 80 75 74 73 71 70 64 62 55 47
54 61 68 74 69 68 82 81 72 65 59 51 43 46 47 50 57 62 68 80 86 85 85 90 86 89 86 87 83 81 84 81 74 70 66 60 58 57 55 55 53 50 49
53 58 65 75 71 74 90 83 73 66 57 48 49 47 50 53 57 62 69 74 82 87 82 83 84 85 84 79 68 70 71 72 72 68 68 64 60 56 54 53 52 53 52
52 59 66 71 78 81 81 76 76 64 56 52 51 50 53 54 56 58 65 68 69 74 75 78 78 69 62 57 65 69 69 71 73 73 72 78 79 69 62 67 73 69 63
44 54 60 70 75 85 83 78 72 65 54 55 49 51 55 54 58 58 59 59 59 61 67 66 63 62 63 62 62 59 55 56 53 51 60 57 62 69 68 67 70 76 73
37 58 79 87 83 94 94 86 70 60 57 50 52 52 49 47 51 54 56 56 56 58 60 61 60 56 55 55 53 51 48 46 45 46 45 46 48 50 52 55 54 52 55
49 62 96 98 92 98 87 80 66 58 57 55 52 50 54 51 52 57 57 55 52 47 43 39 37 34 33 31 32 33 37 38 44 46 49 49 47 47 45 45 47 49 51
56 86 94 85 87 84 73 67 63 63 60 59 57 53 50 50 52 55 52 49 41 35 32 31 31 32 31 32 34 36 36 37 38 38 38 37 36 36 35 35 34 33 37
86 86 88 80 81 74 71 68 65 63 63 58 52 50 50 50 50 47 38 34 33 33 33 33 34 36 38 37 38 39 39 38 36 34 34 34 35 34 34 32 30 29 27
79 87 85 76 81 77 71 62 60 55 58 51 48 41 37 38 38 37 38 37 38 38 39 39 39 39 38 39 40 39 37 35 34 34 36 36 36 35 34 34 34 33 32
88 85 84 81 78 74 66 60 62 63 53 48 45 41 42 43 39 36 34 34 34 36 38 36 34 34 34 35 34 32 32 36 38 39 40 41 40 39 39 39 38 37 36
88 90 88 83 77 73 68 66 58 57 53 48 46 41 39 37 36 36 37 38 40 40 40 39 36 34 35 36 34 30 31 36 41 45 47 47 46 46 45 45 44 44 43
96 93 88 83 79 72 66 61 57 51 46 42 38 39 42 41 39 39 40 40 41 42 42 42 42 41 41 41 37 37 44 49 50 50 53 53 54 55 54 53 52 50 51
92 86 81 77 71 65 58 51 46 42 40 41 42 40 42 42 40 39 42 43 44 45 45 46 46 47 46 40 37 45 50 54 57 62 63 63 62 61 60 59 59 59 61
76 73 70 65 60 54 49 47 48 46 44 44 43 42 39 38 40 40 44 46 48 48 50 48 48 48 51 43 43 49 55 60 63 70 74 76 73 74 71 73 72 73 72
63 61 61 57 53 51 49 45 45 45 43 40 40 42 41 42 44 45 49 49 50 52 56 56 59 57 56 47 47 50 52 56 58 64 68 75 81 81 83 83 83 81 77
64 64 62 57 50 43 39 38 37 39 41 43 42 41 41 43 47 50 53 53 55 61 59 61 61 57 46 41 41 41 43 43 45 47 53 60 61 61 65 67 66 65 63
54 49 41 38 39 39 33 32 34 37 40 41 42 44 45 46 49 53 55 57 58 60 58 57 56 54 47 46 50 54 53 51 52 54 56 59 62 68 72 73 73 74 74
39 41 38 36 38 39 38 38 38 41 43 46 49 51 52 49 46 50 54 55 57 54 50 50 56 58 56 62 67 66 61 66 68 69 71 70 67 63 59 60 65 71 72
37 43 43 42 43 44 43 42 44 48 51 51 53 53 51 52 54 54 53 55 56 60 61 58 60 66 70 71 74 70 69 73 79 81 72 67 67 69 72 69 65 61 59
41 40 42 45 43 44 46 46 46 45 49 53 54 59 57 58 59 59 60 65 70 73 74 75 76 74 74 76 69 64 60 70 75 77 73 69 64 64 65 66 70 71 68